Time,TemperatureF,DewpointF,PressureIn,WindDirection,WindDirectionDegrees,WindSpeedMPH,WindSpeedGustMPH,Humidity,HourlyPrecipIn,Conditions,Clouds,dailyrainin,SoftwareType,DateUTC
2013-02-06 00:00:00,34.0,31.1,29.70,ENE,67,0.7,0.7,89,0.00,,,0.00,Weather8,2013-02-06 05:00:00,
2013-02-06 00:05:00,33.8,30.9,29.71,NNW,337,2.0,2.0,89,0.00,,,0.00,Weather8,2013-02-06 05:05:00,
2013-02-06 00:10:00,33.8,30.9,29.71,NNW,337,2.0,2.0,89,0.00,,,0.00,Weather8,2013-02-06 05:10:00,
2013-02-06 00:15:00,33.8,30.9,29.71,NNW,337,2.0,2.0,89,0.00,,,0.00,Weather8,2013-02-06 05:15:00,
2013-02-06 00:20:00,33.8,30.9,29.71,NNW,337,2.0,2.0,89,0.00,,,0.00,Weather8,2013-02-06 05:20:00,
2013-02-06 00:25:00,33.8,30.9,29.71,NNW,337,2.0,2.0,89,0.00,,,0.00,Weather8,2013-02-06 05:25:00,
2013-02-06 00:30:00,33.8,30.9,29.71,NNW,337,2.0,2.0,89,0.00,,,0.00,Weather8,2013-02-06 05:30:00,
2013-02-06 00:35:00,33.8,30.9,29.71,NNW,337,1.1,2.0,89,0.00,,,0.00,Weather8,2013-02-06 05:35:00,
2013-02-06 00:40:00,33.8,30.9,29.71,NNW,337,1.1,2.0,89,0.00,,,0.00,Weather8,2013-02-06 05:40:00,
2013-02-06 00:45:00,33.8,30.9,29.71,NNW,337,1.1,1.1,89,0.00,,,0.00,Weather8,2013-02-06 05:45:00,
2013-02-06 00:50:00,33.8,30.9,29.71,NNW,337,1.1,1.1,89,0.00,,,0.00,Weather8,2013-02-06 05:50:00,
2013-02-06 00:55:00,33.8,30.9,29.71,NNW,337,1.1,1.1,89,0.00,,,0.00,Weather8,2013-02-06 05:55:00,
2013-02-06 01:00:00,33.8,30.9,29.71,NNW,337,1.1,1.1,89,0.00,,,0.00,Weather8,2013-02-06 06:00:00,
2013-02-06 01:05:00,33.8,31.1,29.71,NNW,337,1.6,1.6,90,0.00,,,0.00,Weather8,2013-02-06 06:05:00,
2013-02-06 01:10:00,33.8,31.1,29.71,NNW,337,1.6,1.6,90,0.00,,,0.00,Weather8,2013-02-06 06:10:00,
2013-02-06 01:15:00,33.8,31.1,29.71,NNW,337,1.6,1.6,90,0.00,,,0.00,Weather8,2013-02-06 06:15:00,
2013-02-06 01:20:00,33.8,31.1,29.71,NNW,337,1.6,1.6,90,0.00,,,0.00,Weather8,2013-02-06 06:20:00,
2013-02-06 01:25:00,33.8,31.1,29.71,NNW,337,1.6,1.6,90,0.00,,,0.00,Weather8,2013-02-06 06:25:00,
2013-02-06 01:30:00,33.8,31.1,29.71,NNW,337,1.6,1.6,90,0.00,,,0.00,Weather8,2013-02-06 06:30:00,
2013-02-06 01:35:00,33.7,30.7,29.71,NNW,337,2.5,2.5,89,0.00,,,0.00,Weather8,2013-02-06 06:35:00,
2013-02-06 01:40:00,33.7,30.7,29.71,NNW,337,2.5,2.5,89,0.00,,,0.00,Weather8,2013-02-06 06:40:00,
2013-02-06 01:45:00,33.7,30.7,29.71,NNW,337,2.5,2.5,89,0.00,,,0.00,Weather8,2013-02-06 06:45:00,
2013-02-06 01:50:00,33.7,30.7,29.71,NNW,337,2.5,2.5,89,0.00,,,0.00,Weather8,2013-02-06 06:50:00,
2013-02-06 01:55:00,33.7,30.7,29.71,NNW,337,2.5,2.5,89,0.00,,,0.00,Weather8,2013-02-06 06:55:00,
2013-02-06 02:00:00,33.7,30.7,29.71,NNW,337,2.5,2.5,89,0.00,,,0.00,Weather8,2013-02-06 07:00:00,
2013-02-06 02:05:00,33.3,30.3,29.72,North,0,1.6,2.5,89,0.00,,,0.00,Weather8,2013-02-06 07:05:00,
2013-02-06 02:10:00,33.3,30.3,29.72,North,0,1.6,2.5,89,0.00,,,0.00,Weather8,2013-02-06 07:10:00,
2013-02-06 02:15:00,33.3,30.3,29.72,North,0,1.6,1.6,89,0.00,,,0.00,Weather8,2013-02-06 07:15:00,
2013-02-06 02:20:00,33.3,30.3,29.72,North,0,1.6,1.6,89,0.00,,,0.00,Weather8,2013-02-06 07:20:00,
2013-02-06 02:25:00,33.3,30.3,29.72,North,0,1.6,1.6,89,0.00,,,0.00,Weather8,2013-02-06 07:25:00,
2013-02-06 02:29:00,33.3,30.3,29.72,North,0,1.6,1.6,89,0.00,,,0.00,Weather8,2013-02-06 07:29:00,
2013-02-06 02:30:00,33.3,30.3,29.72,North,0,1.6,1.6,89,0.00,,,0.00,Weather8,2013-02-06 07:30:00,
2013-02-06 02:35:00,32.9,30.3,29.72,North,0,0.9,1.6,90,0.00,,,0.00,Weather8,2013-02-06 07:35:00,
2013-02-06 02:40:00,32.9,30.3,29.72,North,0,0.9,1.6,90,0.00,,,0.00,Weather8,2013-02-06 07:40:00,
2013-02-06 02:45:00,32.9,30.3,29.72,North,0,0.9,0.9,90,0.00,,,0.00,Weather8,2013-02-06 07:45:00,
2013-02-06 02:50:00,32.9,30.3,29.72,North,0,0.9,0.9,90,0.00,,,0.00,Weather8,2013-02-06 07:50:00,
2013-02-06 02:55:00,32.9,30.3,29.72,North,0,0.9,0.9,90,0.00,,,0.00,Weather8,2013-02-06 07:55:00,
2013-02-06 03:00:00,32.9,30.3,29.72,North,0,0.9,0.9,90,0.00,,,0.00,Weather8,2013-02-06 08:00:00,
2013-02-06 03:05:00,32.8,30.2,29.72,North,0,0.9,0.9,90,0.00,,,0.00,Weather8,2013-02-06 08:05:00,
2013-02-06 03:10:00,32.8,30.2,29.72,North,0,0.9,0.9,90,0.00,,,0.00,Weather8,2013-02-06 08:10:00,
2013-02-06 03:15:00,32.8,30.2,29.72,North,0,0.9,0.9,90,0.00,,,0.00,Weather8,2013-02-06 08:15:00,
2013-02-06 03:20:00,32.8,30.2,29.72,North,0,0.9,0.9,90,0.00,,,0.00,Weather8,2013-02-06 08:20:00,
2013-02-06 03:25:00,32.8,30.2,29.72,North,0,0.9,0.9,90,0.00,,,0.00,Weather8,2013-02-06 08:25:00,
2013-02-06 03:30:00,32.8,30.2,29.72,North,0,0.9,0.9,90,0.00,,,0.00,Weather8,2013-02-06 08:30:00,
2013-02-06 03:35:00,32.8,29.9,29.74,NNW,337,0.9,0.9,89,0.00,,,0.00,Weather8,2013-02-06 08:35:00,
2013-02-06 03:40:00,32.8,29.9,29.74,NNW,337,0.9,0.9,89,0.00,,,0.00,Weather8,2013-02-06 08:40:00,
2013-02-06 03:45:00,32.8,29.9,29.74,NNW,337,0.9,0.9,89,0.00,,,0.00,Weather8,2013-02-06 08:45:00,
2013-02-06 03:50:00,32.8,29.9,29.74,NNW,337,0.9,0.9,89,0.00,,,0.00,Weather8,2013-02-06 08:50:00,
2013-02-06 03:55:00,32.8,29.9,29.74,NNW,337,0.9,0.9,89,0.00,,,0.00,Weather8,2013-02-06 08:55:00,
2013-02-06 04:00:00,32.8,29.9,29.74,NNW,337,0.9,0.9,89,0.00,,,0.00,Weather8,2013-02-06 09:00:00,
2013-02-06 04:05:00,32.8,29.9,29.74,North,0,0.4,0.9,89,0.00,,,0.00,Weather8,2013-02-06 09:05:00,
2013-02-06 04:10:00,32.8,29.9,29.74,North,0,0.4,0.9,89,0.00,,,0.00,Weather8,2013-02-06 09:10:00,
2013-02-06 04:15:00,32.8,29.9,29.74,North,0,0.4,0.4,89,0.00,,,0.00,Weather8,2013-02-06 09:15:00,
2013-02-06 04:20:00,32.8,29.9,29.74,North,0,0.4,0.4,89,0.00,,,0.00,Weather8,2013-02-06 09:20:00,
2013-02-06 04:25:00,32.8,29.9,29.74,North,0,0.4,0.4,89,0.00,,,0.00,Weather8,2013-02-06 09:25:00,
2013-02-06 04:30:00,32.8,30.2,29.75,NNW,337,2.2,2.2,90,0.00,,,0.00,Weather8,2013-02-06 09:30:00,
2013-02-06 04:35:00,32.8,30.2,29.75,NNW,337,2.2,2.2,90,0.00,,,0.00,Weather8,2013-02-06 09:35:00,
2013-02-06 04:40:00,32.8,30.2,29.75,NNW,337,2.2,2.2,90,0.00,,,0.00,Weather8,2013-02-06 09:40:00,
2013-02-06 04:45:00,32.8,30.2,29.75,NNW,337,2.2,2.2,90,0.00,,,0.00,Weather8,2013-02-06 09:45:00,
2013-02-06 04:50:00,32.8,30.2,29.75,NNW,337,2.2,2.2,90,0.00,,,0.00,Weather8,2013-02-06 09:50:00,
2013-02-06 04:55:00,32.8,30.2,29.75,NNW,337,2.2,2.2,90,0.00,,,0.00,Weather8,2013-02-06 09:55:00,
2013-02-06 05:00:00,32.6,30.0,29.76,NW,315,2.2,2.2,90,0.00,,,0.00,Weather8,2013-02-06 10:00:00,
2013-02-06 05:05:00,32.6,30.0,29.76,NW,315,2.2,2.2,90,0.00,,,0.00,Weather8,2013-02-06 10:05:00,
2013-02-06 05:10:00,32.6,30.0,29.76,NW,315,2.2,2.2,90,0.00,,,0.00,Weather8,2013-02-06 10:10:00,
2013-02-06 05:15:00,32.6,30.0,29.76,NW,315,2.2,2.2,90,0.00,,,0.00,Weather8,2013-02-06 10:15:00,
2013-02-06 05:20:00,32.6,30.0,29.76,NW,315,2.2,2.2,90,0.00,,,0.00,Weather8,2013-02-06 10:20:00,
2013-02-06 05:25:00,32.6,30.0,29.76,NW,315,2.2,2.2,90,0.00,,,0.00,Weather8,2013-02-06 10:25:00,
2013-02-06 05:30:00,32.2,29.4,29.78,NNW,337,2.2,2.2,89,0.00,,,0.00,Weather8,2013-02-06 10:30:00,
2013-02-06 05:35:00,32.2,29.4,29.78,NNW,337,2.2,2.2,89,0.00,,,0.00,Weather8,2013-02-06 10:35:00,
2013-02-06 05:40:00,32.2,29.4,29.78,NNW,337,2.2,2.2,89,0.00,,,0.00,Weather8,2013-02-06 10:40:00,
2013-02-06 05:45:00,32.2,29.4,29.78,NNW,337,2.2,2.2,89,0.00,,,0.00,Weather8,2013-02-06 10:45:00,
2013-02-06 05:50:00,32.2,29.4,29.78,NNW,337,2.2,2.2,89,0.00,,,0.00,Weather8,2013-02-06 10:50:00,
2013-02-06 05:55:00,32.2,29.4,29.78,NNW,337,2.2,2.2,89,0.00,,,0.00,Weather8,2013-02-06 10:55:00,
2013-02-06 06:00:00,31.9,29.1,29.79,NW,315,0.9,2.2,89,0.00,,,0.00,Weather8,2013-02-06 11:00:00,
2013-02-06 06:05:00,31.9,29.1,29.79,NW,315,0.9,2.2,89,0.00,,,0.00,Weather8,2013-02-06 11:05:00,
2013-02-06 06:10:00,31.9,29.1,29.79,NW,315,0.9,2.2,89,0.00,,,0.00,Weather8,2013-02-06 11:10:00,
2013-02-06 06:15:00,31.9,29.1,29.79,NW,315,0.9,0.9,89,0.00,,,0.00,Weather8,2013-02-06 11:15:00,
2013-02-06 06:20:00,31.9,29.1,29.79,NW,315,0.9,0.9,89,0.00,,,0.00,Weather8,2013-02-06 11:20:00,
2013-02-06 06:25:00,31.9,29.1,29.79,NW,315,0.9,0.9,89,0.00,,,0.00,Weather8,2013-02-06 11:25:00,
2013-02-06 06:30:00,31.1,28.4,29.82,WNW,292,0.7,0.9,89,0.00,,,0.00,Weather8,2013-02-06 11:30:00,
2013-02-06 06:35:00,31.1,28.4,29.82,WNW,292,0.7,0.9,89,0.00,,,0.00,Weather8,2013-02-06 11:35:00,
2013-02-06 06:40:00,31.1,28.4,29.82,WNW,292,0.7,0.9,89,0.00,,,0.00,Weather8,2013-02-06 11:40:00,
2013-02-06 06:45:00,31.1,28.4,29.82,WNW,292,0.7,0.7,89,0.00,,,0.00,Weather8,2013-02-06 11:45:00,
2013-02-06 06:50:00,31.1,28.4,29.82,WNW,292,0.7,0.7,89,0.00,,,0.00,Weather8,2013-02-06 11:50:00,
2013-02-06 06:55:00,31.1,28.4,29.82,WNW,292,0.7,0.7,89,0.00,,,0.00,Weather8,2013-02-06 11:55:00,
2013-02-06 07:00:00,30.6,27.8,29.84,West,270,1.3,1.3,89,0.00,,,0.00,Weather8,2013-02-06 12:00:00,
2013-02-06 07:05:00,30.6,27.8,29.84,West,270,1.3,1.3,89,0.00,,,0.00,Weather8,2013-02-06 12:05:00,
2013-02-06 07:10:00,30.6,27.8,29.84,West,270,1.3,1.3,89,0.00,,,0.00,Weather8,2013-02-06 12:10:00,
2013-02-06 07:15:00,30.6,27.8,29.84,West,270,1.3,1.3,89,0.00,,,0.00,Weather8,2013-02-06 12:15:00,
2013-02-06 07:20:00,30.6,27.8,29.84,West,270,1.3,1.3,89,0.00,,,0.00,Weather8,2013-02-06 12:20:00,
2013-02-06 07:25:00,30.6,27.8,29.84,West,270,1.3,1.3,89,0.00,,,0.00,Weather8,2013-02-06 12:25:00,
2013-02-06 07:30:00,30.2,27.5,29.85,NNW,337,1.8,1.8,89,0.00,,,0.00,Weather8,2013-02-06 12:30:00,
2013-02-06 07:35:00,30.2,27.5,29.85,NNW,337,1.8,1.8,89,0.00,,,0.00,Weather8,2013-02-06 12:35:00,
2013-02-06 07:40:00,30.2,27.5,29.85,NNW,337,1.8,1.8,89,0.00,,,0.00,Weather8,2013-02-06 12:40:00,
2013-02-06 07:45:00,30.2,27.5,29.85,NNW,337,1.8,1.8,89,0.00,,,0.00,Weather8,2013-02-06 12:45:00,
2013-02-06 07:50:00,30.2,27.5,29.85,NNW,337,1.8,1.8,89,0.00,,,0.00,Weather8,2013-02-06 12:50:00,
2013-02-06 07:55:00,30.2,27.5,29.85,NNW,337,1.8,1.8,89,0.00,,,0.00,Weather8,2013-02-06 12:55:00,
2013-02-06 08:00:00,31.0,28.2,29.86,WNW,292,1.8,1.8,89,0.00,,,0.00,Weather8,2013-02-06 13:00:00,
2013-02-06 08:05:00,31.0,28.2,29.86,WNW,292,1.8,1.8,89,0.00,,,0.00,Weather8,2013-02-06 13:05:00,
2013-02-06 08:10:00,31.0,28.2,29.86,WNW,292,1.8,1.8,89,0.00,,,0.00,Weather8,2013-02-06 13:10:00,
2013-02-06 08:15:00,31.0,28.2,29.86,WNW,292,1.8,1.8,89,0.00,,,0.00,Weather8,2013-02-06 13:15:00,
2013-02-06 08:20:00,31.0,28.2,29.86,WNW,292,1.8,1.8,89,0.00,,,0.00,Weather8,2013-02-06 13:20:00,
2013-02-06 08:25:00,31.0,28.2,29.86,WNW,292,1.8,1.8,89,0.00,,,0.00,Weather8,2013-02-06 13:25:00,
2013-02-06 08:30:00,32.0,28.6,29.88,NW,315,1.6,1.8,87,0.00,,,0.00,Weather8,2013-02-06 13:30:00,
2013-02-06 08:35:00,32.0,28.6,29.88,NW,315,1.6,1.8,87,0.00,,,0.00,Weather8,2013-02-06 13:35:00,
2013-02-06 08:40:00,32.0,28.6,29.88,NW,315,1.6,1.8,87,0.00,,,0.00,Weather8,2013-02-06 13:40:00,
2013-02-06 08:45:00,32.0,28.6,29.88,NW,315,1.6,1.6,87,0.00,,,0.00,Weather8,2013-02-06 13:45:00,
2013-02-06 08:50:00,32.0,28.6,29.88,NW,315,1.6,1.6,87,0.00,,,0.00,Weather8,2013-02-06 13:50:00,
2013-02-06 08:55:00,32.0,28.6,29.88,NW,315,1.6,1.6,87,0.00,,,0.00,Weather8,2013-02-06 13:55:00,
2013-02-06 09:00:00,33.1,28.4,29.89,North,0,1.8,1.8,83,0.00,,,0.00,Weather8,2013-02-06 14:00:00,
2013-02-06 09:05:00,33.1,28.4,29.89,North,0,1.8,1.8,83,0.00,,,0.00,Weather8,2013-02-06 14:05:00,
2013-02-06 09:10:00,33.1,28.4,29.89,North,0,1.8,1.8,83,0.00,,,0.00,Weather8,2013-02-06 14:10:00,
2013-02-06 09:15:00,33.1,28.4,29.89,North,0,1.8,1.8,83,0.00,,,0.00,Weather8,2013-02-06 14:15:00,
2013-02-06 09:20:00,33.1,28.4,29.89,North,0,1.8,1.8,83,0.00,,,0.00,Weather8,2013-02-06 14:20:00,
2013-02-06 09:25:00,33.1,28.4,29.89,North,0,1.8,1.8,83,0.00,,,0.00,Weather8,2013-02-06 14:25:00,
2013-02-06 09:30:00,34.4,27.8,29.90,North,0,2.7,2.7,77,0.00,,,0.00,Weather8,2013-02-06 14:30:00,
2013-02-06 09:35:00,34.4,27.8,29.90,North,0,2.7,2.7,77,0.00,,,0.00,Weather8,2013-02-06 14:35:00,
2013-02-06 09:40:00,34.4,27.8,29.90,North,0,2.7,2.7,77,0.00,,,0.00,Weather8,2013-02-06 14:40:00,
2013-02-06 09:45:00,34.4,27.8,29.90,North,0,2.7,2.7,77,0.00,,,0.00,Weather8,2013-02-06 14:45:00,
2013-02-06 09:50:00,34.4,27.8,29.90,North,0,2.7,2.7,77,0.00,,,0.00,Weather8,2013-02-06 14:50:00,
2013-02-06 09:55:00,34.4,27.8,29.90,North,0,2.7,2.7,77,0.00,,,0.00,Weather8,2013-02-06 14:55:00,
2013-02-06 10:00:00,36.2,28.4,29.91,NW,315,6.0,6.0,73,0.00,,,0.00,Weather8,2013-02-06 15:00:00,
2013-02-06 10:05:00,36.2,28.4,29.91,NW,315,6.0,6.0,73,0.00,,,0.00,Weather8,2013-02-06 15:05:00,
2013-02-06 10:10:00,36.2,28.4,29.91,NW,315,6.0,6.0,73,0.00,,,0.00,Weather8,2013-02-06 15:10:00,
2013-02-06 10:15:00,36.2,28.4,29.91,NW,315,6.0,6.0,73,0.00,,,0.00,Weather8,2013-02-06 15:15:00,
2013-02-06 10:20:00,36.2,28.4,29.91,NW,315,6.0,6.0,73,0.00,,,0.00,Weather8,2013-02-06 15:20:00,
2013-02-06 10:25:00,36.2,28.4,29.91,NW,315,6.0,6.0,73,0.00,,,0.00,Weather8,2013-02-06 15:25:00,
2013-02-06 10:30:00,37.4,27.1,29.92,NW,315,5.6,6.0,66,0.00,,,0.00,Weather8,2013-02-06 15:30:00,
2013-02-06 10:35:00,37.4,27.1,29.92,NW,315,5.6,6.0,66,0.00,,,0.00,Weather8,2013-02-06 15:35:00,
2013-02-06 10:40:00,37.4,27.1,29.92,NW,315,5.6,6.0,66,0.00,,,0.00,Weather8,2013-02-06 15:40:00,
2013-02-06 10:52:00,38.5,26.9,29.92,NNW,337,6.9,6.9,63,0.00,,,0.00,Weather8,2013-02-06 15:52:00,
2013-02-06 10:57:00,38.9,27.3,29.92,WNW,292,8.7,10.5,63,0.00,,,0.00,Weather8,2013-02-06 15:57:00,
2013-02-06 11:02:00,39.2,27.6,29.92,NNW,337,7.6,10.5,63,0.00,,,0.00,Weather8,2013-02-06 16:02:00,
2013-02-06 11:07:00,39.2,27.6,29.92,NNW,337,8.5,10.5,63,0.00,,,0.00,Weather8,2013-02-06 16:07:00,
2013-02-06 11:12:00,39.2,27.6,29.92,NNW,337,8.5,8.5,63,0.00,,,0.00,Weather8,2013-02-06 16:12:00,
2013-02-06 11:17:00,39.2,27.6,29.92,NNW,337,8.5,8.5,63,0.00,,,0.00,Weather8,2013-02-06 16:17:00,
2013-02-06 11:22:00,39.2,27.6,29.92,NNW,337,8.5,8.5,63,0.00,,,0.00,Weather8,2013-02-06 16:22:00,
2013-02-06 11:27:00,39.2,27.6,29.92,NNW,337,8.5,8.5,63,0.00,,,0.00,Weather8,2013-02-06 16:27:00,
2013-02-06 11:32:00,39.2,27.6,29.92,NNW,337,8.5,8.5,63,0.00,,,0.00,Weather8,2013-02-06 16:32:00,
2013-02-06 11:37:00,41.0,27.8,29.92,NNW,337,5.6,8.5,59,0.00,,,0.00,Weather8,2013-02-06 16:37:00,
2013-02-06 11:42:00,41.0,27.8,29.92,NNW,337,5.6,8.5,59,0.00,,,0.00,Weather8,2013-02-06 16:42:00,
2013-02-06 11:47:00,41.0,27.8,29.92,NNW,337,5.6,5.6,59,0.00,,,0.00,Weather8,2013-02-06 16:47:00,
2013-02-06 11:52:00,41.0,27.8,29.92,NNW,337,5.6,5.6,59,0.00,,,0.00,Weather8,2013-02-06 16:52:00,
2013-02-06 11:57:00,41.0,27.8,29.92,NNW,337,5.6,5.6,59,0.00,,,0.00,Weather8,2013-02-06 16:57:00,
2013-02-06 12:02:00,40.3,26.2,29.92,NNW,337,6.3,6.3,57,0.00,,,0.00,Weather8,2013-02-06 17:02:00,
2013-02-06 12:07:00,40.3,26.2,29.92,NNW,337,6.3,6.3,57,0.00,,,0.00,Weather8,2013-02-06 17:07:00,
2013-02-06 12:13:00,40.3,26.2,29.92,NNW,337,6.3,6.3,57,0.00,,,0.00,Weather8,2013-02-06 17:13:00,
2013-02-06 12:18:00,40.3,26.2,29.92,NNW,337,6.3,6.3,57,0.00,,,0.00,Weather8,2013-02-06 17:18:00,
2013-02-06 12:23:00,40.3,26.2,29.92,NNW,337,6.3,6.3,57,0.00,,,0.00,Weather8,2013-02-06 17:23:00,
2013-02-06 12:28:00,40.3,26.2,29.92,NNW,337,6.3,6.3,57,0.00,,,0.00,Weather8,2013-02-06 17:28:00,
2013-02-06 12:33:00,41.2,24.9,29.93,NNW,337,5.6,6.3,52,0.00,,,0.00,Weather8,2013-02-06 17:33:00,
2013-02-06 12:38:00,41.2,24.9,29.93,NNW,337,5.6,6.3,52,0.00,,,0.00,Weather8,2013-02-06 17:38:00,
2013-02-06 12:43:00,41.2,24.9,29.93,NNW,337,5.6,5.6,52,0.00,,,0.00,Weather8,2013-02-06 17:43:00,
2013-02-06 12:48:00,41.2,24.9,29.93,NNW,337,5.6,5.6,52,0.00,,,0.00,Weather8,2013-02-06 17:48:00,
2013-02-06 12:53:00,41.2,24.9,29.93,NNW,337,5.6,5.6,52,0.00,,,0.00,Weather8,2013-02-06 17:53:00,
2013-02-06 12:58:00,41.2,24.9,29.93,NNW,337,5.6,5.6,52,0.00,,,0.00,Weather8,2013-02-06 17:58:00,
2013-02-06 13:03:00,40.5,24.6,29.93,WNW,292,3.4,5.6,53,0.00,,,0.00,Weather8,2013-02-06 18:03:00,
2013-02-06 13:08:00,40.5,24.6,29.93,WNW,292,3.4,5.6,53,0.00,,,0.00,Weather8,2013-02-06 18:08:00,
2013-02-06 13:13:00,40.5,24.6,29.93,WNW,292,3.4,3.4,53,0.00,,,0.00,Weather8,2013-02-06 18:13:00,
2013-02-06 13:18:00,40.5,24.6,29.93,WNW,292,3.4,3.4,53,0.00,,,0.00,Weather8,2013-02-06 18:18:00,
2013-02-06 13:23:00,40.5,24.6,29.93,WNW,292,3.4,3.4,53,0.00,,,0.00,Weather8,2013-02-06 18:23:00,
2013-02-06 13:28:00,40.5,24.6,29.93,WNW,292,3.4,3.4,53,0.00,,,0.00,Weather8,2013-02-06 18:28:00,
2013-02-06 13:33:00,40.1,25.1,29.92,NNW,337,5.4,5.4,55,0.00,,,0.00,Weather8,2013-02-06 18:33:00,
2013-02-06 13:38:00,40.1,25.1,29.92,NNW,337,5.4,5.4,55,0.00,,,0.00,Weather8,2013-02-06 18:38:00,
2013-02-06 13:43:00,40.1,25.1,29.92,NNW,337,5.4,5.4,55,0.00,,,0.00,Weather8,2013-02-06 18:43:00,
2013-02-06 13:48:00,40.1,25.1,29.92,NNW,337,5.4,5.4,55,0.00,,,0.00,Weather8,2013-02-06 18:48:00,
2013-02-06 13:53:00,40.1,25.1,29.92,NNW,337,5.4,5.4,55,0.00,,,0.00,Weather8,2013-02-06 18:53:00,
2013-02-06 13:58:00,40.1,25.1,29.92,NNW,337,5.4,5.4,55,0.00,,,0.00,Weather8,2013-02-06 18:58:00,
2013-02-06 14:03:00,40.0,25.0,29.93,North,0,8.5,8.5,55,0.00,,,0.00,Weather8,2013-02-06 19:03:00,
2013-02-06 14:08:00,40.0,25.0,29.93,North,0,8.5,8.5,55,0.00,,,0.00,Weather8,2013-02-06 19:08:00,
2013-02-06 14:13:00,40.0,25.0,29.93,North,0,8.5,8.5,55,0.00,,,0.00,Weather8,2013-02-06 19:13:00,
2013-02-06 14:18:00,40.0,25.0,29.93,North,0,8.5,8.5,55,0.00,,,0.00,Weather8,2013-02-06 19:18:00,
2013-02-06 14:23:00,40.0,25.0,29.93,North,0,8.5,8.5,55,0.00,,,0.00,Weather8,2013-02-06 19:23:00,
2013-02-06 14:28:00,40.0,25.0,29.93,North,0,8.5,8.5,55,0.00,,,0.00,Weather8,2013-02-06 19:28:00,
2013-02-06 14:33:00,39.4,24.0,29.95,NNW,337,4.5,8.5,54,0.00,,,0.00,Weather8,2013-02-06 19:33:00,
2013-02-06 14:38:00,39.4,24.0,29.95,NNW,337,4.5,8.5,54,0.00,,,0.00,Weather8,2013-02-06 19:38:00,
2013-02-06 14:43:00,39.4,24.0,29.95,NNW,337,4.5,4.5,54,0.00,,,0.00,Weather8,2013-02-06 19:43:00,
2013-02-06 14:48:00,39.4,24.0,29.95,NNW,337,4.5,4.5,54,0.00,,,0.00,Weather8,2013-02-06 19:48:00,
2013-02-06 14:53:00,39.4,24.0,29.95,NNW,337,4.5,4.5,54,0.00,,,0.00,Weather8,2013-02-06 19:53:00,
2013-02-06 14:58:00,39.4,24.0,29.95,NNW,337,4.5,4.5,54,0.00,,,0.00,Weather8,2013-02-06 19:58:00,
2013-02-06 15:03:00,39.2,23.9,29.95,NNW,337,5.6,5.6,54,0.00,,,0.00,Weather8,2013-02-06 20:03:00,
2013-02-06 15:08:00,39.2,23.9,29.95,NNW,337,5.6,5.6,54,0.00,,,0.00,Weather8,2013-02-06 20:08:00,
2013-02-06 15:13:00,39.2,23.9,29.95,NNW,337,5.6,5.6,54,0.00,,,0.00,Weather8,2013-02-06 20:13:00,
2013-02-06 15:18:00,39.2,23.9,29.95,NNW,337,5.6,5.6,54,0.00,,,0.00,Weather8,2013-02-06 20:18:00,
2013-02-06 15:23:00,39.2,23.9,29.95,NNW,337,5.6,5.6,54,0.00,,,0.00,Weather8,2013-02-06 20:23:00,
2013-02-06 15:28:00,39.2,23.9,29.95,NNW,337,5.6,5.6,54,0.00,,,0.00,Weather8,2013-02-06 20:28:00,
2013-02-06 15:33:00,39.2,23.4,29.95,NW,315,9.2,9.2,53,0.00,,,0.00,Weather8,2013-02-06 20:33:00,
2013-02-06 15:38:00,39.2,23.4,29.95,NW,315,9.2,9.2,53,0.00,,,0.00,Weather8,2013-02-06 20:38:00,
2013-02-06 15:43:00,39.2,23.4,29.95,NW,315,9.2,9.2,53,0.00,,,0.00,Weather8,2013-02-06 20:43:00,
2013-02-06 15:48:00,39.2,23.4,29.95,NW,315,9.2,9.2,53,0.00,,,0.00,Weather8,2013-02-06 20:48:00,
2013-02-06 15:53:00,39.2,23.4,29.95,NW,315,9.2,9.2,53,0.00,,,0.00,Weather8,2013-02-06 20:53:00,
2013-02-06 15:58:00,39.2,23.4,29.95,NW,315,9.2,9.2,53,0.00,,,0.00,Weather8,2013-02-06 20:58:00,
2013-02-06 16:03:00,39.6,23.8,29.97,NW,315,5.1,9.2,53,0.00,,,0.00,Weather8,2013-02-06 21:03:00,
2013-02-06 16:08:00,39.6,23.8,29.97,NW,315,5.1,9.2,53,0.00,,,0.00,Weather8,2013-02-06 21:08:00,
2013-02-06 16:13:00,39.6,23.8,29.97,NW,315,5.1,5.1,53,0.00,,,0.00,Weather8,2013-02-06 21:13:00,
2013-02-06 16:18:00,39.6,23.8,29.97,NW,315,5.1,5.1,53,0.00,,,0.00,Weather8,2013-02-06 21:18:00,
2013-02-06 16:23:00,39.6,23.8,29.97,NW,315,5.1,5.1,53,0.00,,,0.00,Weather8,2013-02-06 21:23:00,
2013-02-06 16:28:00,39.6,23.8,29.97,NW,315,5.1,5.1,53,0.00,,,0.00,Weather8,2013-02-06 21:28:00,
2013-02-06 16:39:00,39.1,23.3,29.99,North,0,6.7,6.7,53,0.00,,,0.00,Weather8,2013-02-06 21:39:00,
2013-02-06 16:44:00,38.9,23.1,29.99,NW,315,1.3,6.7,53,0.00,,,0.00,Weather8,2013-02-06 21:44:00,
2013-02-06 16:49:00,38.7,23.0,29.99,North,0,5.1,6.9,53,0.00,,,0.00,Weather8,2013-02-06 21:49:00,
2013-02-06 16:54:00,38.5,23.2,29.99,NNW,337,3.6,8.9,54,0.00,,,0.00,Weather8,2013-02-06 21:54:00,
2013-02-06 16:59:00,38.5,22.8,30.00,North,0,5.4,8.9,53,0.00,,,0.00,Weather8,2013-02-06 21:59:00,
2013-02-06 17:04:00,38.3,22.6,30.00,North,0,4.7,8.9,53,0.00,,,0.00,Weather8,2013-02-06 22:04:00,
2013-02-06 17:09:00,38.2,22.5,30.00,NNW,337,5.4,5.8,53,0.00,,,0.00,Weather8,2013-02-06 22:09:00,
2013-02-06 17:14:00,38.0,22.3,30.00,WNW,292,3.6,7.6,53,0.00,,,0.00,Weather8,2013-02-06 22:14:00,
2013-02-06 17:19:00,37.8,22.1,30.00,NNW,337,4.3,7.6,53,0.00,,,0.00,Weather8,2013-02-06 22:19:00,
2013-02-06 17:24:00,37.8,22.6,30.00,NNW,337,2.0,6.0,54,0.00,,,0.00,Weather8,2013-02-06 22:24:00,
2013-02-06 17:29:00,37.6,22.4,30.01,NNW,337,4.5,4.5,54,0.00,,,0.00,Weather8,2013-02-06 22:29:00,
2013-02-06 17:34:00,37.4,22.2,30.01,North,0,4.5,4.5,54,0.00,,,0.00,Weather8,2013-02-06 22:34:00,
2013-02-06 17:39:00,37.3,22.1,30.01,NW,315,4.0,4.5,54,0.00,,,0.00,Weather8,2013-02-06 22:39:00,
2013-02-06 17:44:00,37.1,22.3,30.02,NNW,337,3.8,4.5,55,0.00,,,0.00,Weather8,2013-02-06 22:44:00,
2013-02-06 17:49:00,36.9,22.2,30.02,NW,315,2.5,4.0,55,0.00,,,0.00,Weather8,2013-02-06 22:49:00,
2013-02-06 17:54:00,36.7,22.1,30.02,NNW,337,3.4,3.8,55,0.00,,,0.00,Weather8,2013-02-06 22:54:00,
2013-02-06 17:59:00,36.5,22.3,30.03,WNW,292,1.1,3.8,56,0.00,,,0.00,Weather8,2013-02-06 22:59:00,
2013-02-06 18:04:00,36.4,22.1,30.03,NNW,337,1.1,3.8,56,0.00,,,0.00,Weather8,2013-02-06 23:04:00,
2013-02-06 18:09:00,36.4,22.6,30.03,WNW,292,0.7,3.8,57,0.00,,,0.00,Weather8,2013-02-06 23:09:00,
2013-02-06 18:14:00,36.2,22.4,30.04,NW,315,0.9,3.1,57,0.00,,,0.00,Weather8,2013-02-06 23:14:00,
2013-02-06 18:19:00,36.0,22.7,30.04,NNW,337,1.6,3.1,58,0.00,,,0.00,Weather8,2013-02-06 23:19:00,
2013-02-06 18:24:00,35.8,22.5,30.04,NNW,337,1.1,2.5,58,0.00,,,0.00,Weather8,2013-02-06 23:24:00,
2013-02-06 18:29:00,35.6,22.3,30.04,NW,315,1.3,2.7,58,0.00,,,0.00,Weather8,2013-02-06 23:29:00,
2013-02-06 18:34:00,35.5,22.6,30.04,NNW,337,3.6,4.3,59,0.00,,,0.00,Weather8,2013-02-06 23:34:00,
2013-02-06 18:39:00,35.3,22.4,30.05,North,0,2.5,4.3,59,0.00,,,0.00,Weather8,2013-02-06 23:39:00,
2013-02-06 18:44:00,35.3,22.4,30.05,NNW,337,4.3,4.3,59,0.00,,,0.00,Weather8,2013-02-06 23:44:00,
2013-02-06 18:49:00,34.9,22.1,30.05,NW,315,2.2,4.3,59,0.00,,,0.00,Weather8,2013-02-06 23:49:00,
2013-02-06 18:54:00,34.9,22.1,30.05,NNW,337,4.0,4.3,59,0.00,,,0.00,Weather8,2013-02-06 23:54:00,
2013-02-06 18:59:00,34.9,22.1,30.05,NNW,337,2.2,4.3,59,0.00,,,0.00,Weather8,2013-02-06 23:59:00,
2013-02-06 19:04:00,34.7,21.9,30.06,NNW,337,4.0,4.0,59,0.00,,,0.00,Weather8,2013-02-07 00:04:00,
2013-02-06 19:09:00,34.7,21.9,30.07,North,0,1.8,4.0,59,0.00,,,0.00,Weather8,2013-02-07 00:09:00,
2013-02-06 19:14:00,34.6,21.7,30.07,NNW,337,2.5,4.0,59,0.00,,,0.00,Weather8,2013-02-07 00:14:00,
2013-02-06 19:19:00,34.4,22.0,30.07,NNW,337,3.1,3.8,60,0.00,,,0.00,Weather8,2013-02-07 00:19:00,
2013-02-06 19:24:00,34.2,21.8,30.07,NNW,337,2.2,3.4,60,0.00,,,0.00,Weather8,2013-02-07 00:24:00,
2013-02-06 19:29:00,34.0,22.0,30.07,NNW,337,1.6,3.1,61,0.00,,,0.00,Weather8,2013-02-07 00:29:00,
2013-02-06 19:34:00,33.8,21.8,30.07,NNW,337,1.8,3.1,61,0.00,,,0.00,Weather8,2013-02-07 00:34:00,
2013-02-06 19:39:00,33.7,21.6,30.07,NNW,337,0.7,1.8,61,0.00,,,0.00,Weather8,2013-02-07 00:39:00,
2013-02-06 19:44:00,33.5,21.4,30.08,WNW,292,0.4,1.8,61,0.00,,,0.00,Weather8,2013-02-07 00:44:00,
2013-02-06 19:49:00,33.5,21.8,30.07,WNW,292,0.2,1.3,62,0.00,,,0.00,Weather8,2013-02-07 00:49:00,
2013-02-06 19:54:00,33.3,21.7,30.08,SW,225,0.0,0.7,62,0.00,,,0.00,Weather8,2013-02-07 00:54:00,
2013-02-06 19:59:00,33.1,21.5,30.08,SW,225,0.4,0.7,62,0.00,,,0.00,Weather8,2013-02-07 00:59:00,
2013-02-06 20:04:00,32.8,21.2,30.08,SSW,202,0.4,1.1,62,0.00,,,0.00,Weather8,2013-02-07 01:04:00,
2013-02-06 20:09:00,32.4,20.9,30.08,SW,225,0.4,1.1,62,0.00,,,0.00,Weather8,2013-02-07 01:09:00,
2013-02-06 20:14:00,32.2,21.1,30.09,SW,225,0.4,1.1,63,0.00,,,0.00,Weather8,2013-02-07 01:14:00,
2013-02-06 20:19:00,32.0,20.9,30.08,SW,225,0.0,1.1,63,0.00,,,0.00,Weather8,2013-02-07 01:19:00,
2013-02-06 20:24:00,32.0,20.9,30.09,West,270,0.4,0.7,63,0.00,,,0.00,Weather8,2013-02-07 01:24:00,
2013-02-06 20:29:00,31.9,21.1,30.09,West,270,0.0,0.4,64,0.00,,,0.00,Weather8,2013-02-07 01:29:00,
2013-02-06 20:34:00,31.7,20.9,30.09,NW,315,1.1,1.1,64,0.00,,,0.00,Weather8,2013-02-07 01:34:00,
2013-02-06 20:39:00,31.3,20.9,30.09,NNW,337,1.6,1.6,65,0.00,,,0.00,Weather8,2013-02-07 01:39:00,
2013-02-06 20:44:00,31.1,20.7,30.09,North,0,0.7,1.8,65,0.00,,,0.00,Weather8,2013-02-07 01:44:00,
2013-02-06 20:49:00,31.1,21.1,30.09,North,0,1.1,1.8,66,0.00,,,0.00,Weather8,2013-02-07 01:49:00,
2013-02-06 20:54:00,31.0,20.9,30.09,North,0,1.6,1.8,66,0.00,,,0.00,Weather8,2013-02-07 01:54:00,
2013-02-06 20:59:00,31.0,20.9,30.10,NNW,337,0.9,1.8,66,0.00,,,0.00,Weather8,2013-02-07 01:59:00,
2013-02-06 21:04:00,31.0,20.9,30.10,NNW,337,0.7,1.8,66,0.00,,,0.00,Weather8,2013-02-07 02:04:00,
2013-02-06 21:09:00,30.8,20.7,30.10,NNW,337,1.1,1.8,66,0.00,,,0.00,Weather8,2013-02-07 02:09:00,
2013-02-06 21:14:00,30.8,20.7,30.10,NNW,337,0.7,1.8,66,0.00,,,0.00,Weather8,2013-02-07 02:14:00,
2013-02-06 21:19:00,30.6,20.5,30.10,NNW,337,0.2,1.8,66,0.00,,,0.00,Weather8,2013-02-07 02:19:00,
2013-02-06 21:24:00,30.6,20.5,30.11,North,0,0.7,1.1,66,0.00,,,0.00,Weather8,2013-02-07 02:24:00,
2013-02-06 21:29:00,30.6,20.5,30.11,NNW,337,1.8,1.8,66,0.00,,,0.00,Weather8,2013-02-07 02:29:00,
2013-02-06 21:34:00,30.4,20.7,30.11,North,0,2.0,2.2,67,0.00,,,0.00,Weather8,2013-02-07 02:34:00,
2013-02-06 21:39:00,30.4,20.7,30.12,NNW,337,1.1,2.5,67,0.00,,,0.00,Weather8,2013-02-07 02:39:00,
2013-02-06 21:44:00,30.4,20.7,30.12,NNW,337,1.8,2.5,67,0.00,,,0.00,Weather8,2013-02-07 02:44:00,
2013-02-06 21:49:00,30.4,20.7,30.12,NW,315,0.4,2.5,67,0.00,,,0.00,Weather8,2013-02-07 02:49:00,
2013-02-06 21:54:00,30.4,20.7,30.13,NNW,337,0.9,1.8,67,0.00,,,0.00,Weather8,2013-02-07 02:54:00,
2013-02-06 21:59:00,30.2,20.5,30.12,NNW,337,0.9,1.6,67,0.00,,,0.00,Weather8,2013-02-07 02:59:00,
2013-02-06 22:04:00,30.2,20.5,30.13,NNW,337,0.9,1.6,67,0.00,,,0.00,Weather8,2013-02-07 03:04:00,
2013-02-06 22:09:00,30.1,20.3,30.13,NNW,337,0.0,1.6,67,0.00,,,0.00,Weather8,2013-02-07 03:09:00,
2013-02-06 22:14:00,30.1,20.3,30.13,NNW,337,0.7,0.9,67,0.00,,,0.00,Weather8,2013-02-07 03:14:00,
2013-02-06 22:19:00,29.9,20.2,30.13,North,0,0.9,1.1,67,0.00,,,0.00,Weather8,2013-02-07 03:19:00,
2013-02-06 22:24:00,29.9,20.2,30.13,North,0,0.0,1.1,67,0.00,,,0.00,Weather8,2013-02-07 03:24:00,
2013-02-06 22:29:00,29.9,20.2,30.14,North,0,0.4,1.1,67,0.00,,,0.00,Weather8,2013-02-07 03:29:00,
2013-02-06 22:34:00,29.9,20.2,30.14,North,0,1.1,1.1,67,0.00,,,0.00,Weather8,2013-02-07 03:34:00,
2013-02-06 22:39:00,29.5,20.3,30.14,NNW,337,2.5,2.5,68,0.00,,,0.00,Weather8,2013-02-07 03:39:00,
2013-02-06 22:44:00,29.5,20.3,30.14,NNE,22,2.9,2.9,68,0.00,,,0.00,Weather8,2013-02-07 03:44:00,
2013-02-06 22:49:00,29.5,19.9,30.14,North,0,0.4,2.9,67,0.00,,,0.00,Weather8,2013-02-07 03:49:00,
2013-02-06 22:54:00,29.5,19.9,30.15,North,0,1.1,2.9,67,0.00,,,0.00,Weather8,2013-02-07 03:54:00,
2013-02-06 22:59:00,29.5,19.9,30.15,North,0,1.1,2.2,67,0.00,,,0.00,Weather8,2013-02-07 03:59:00,
2013-02-06 23:04:00,29.5,19.5,30.14,North,0,2.5,2.5,66,0.00,,,0.00,Weather8,2013-02-07 04:04:00,
2013-02-06 23:09:00,29.5,19.5,30.15,North,0,1.8,2.5,66,0.00,,,0.00,Weather8,2013-02-07 04:09:00,
2013-02-06 23:14:00,29.5,19.5,30.15,NNE,22,2.5,2.5,66,0.00,,,0.00,Weather8,2013-02-07 04:14:00,
2013-02-06 23:19:00,29.5,19.5,30.15,North,0,1.1,2.5,66,0.00,,,0.00,Weather8,2013-02-07 04:19:00,
2013-02-06 23:24:00,29.5,19.5,30.15,NNW,337,2.5,2.5,66,0.00,,,0.00,Weather8,2013-02-07 04:24:00,
2013-02-06 23:29:00,29.5,19.5,30.15,North,0,2.7,2.7,66,0.00,,,0.00,Weather8,2013-02-07 04:29:00,
2013-02-06 23:34:00,29.5,19.5,30.15,NNE,22,2.0,2.7,66,0.00,,,0.00,Weather8,2013-02-07 04:34:00,
2013-02-06 23:39:00,29.5,19.5,30.15,NNE,22,1.1,2.7,66,0.00,,,0.00,Weather8,2013-02-07 04:39:00,
2013-02-06 23:44:00,29.5,19.5,30.16,North,0,1.3,2.2,66,0.00,,,0.00,Weather8,2013-02-07 04:44:00,
2013-02-06 23:49:00,29.3,19.4,30.15,NNE,22,1.8,2.2,66,0.00,,,0.00,Weather8,2013-02-07 04:49:00,
2013-02-06 23:54:00,29.3,19.4,30.16,North,0,1.6,2.5,66,0.00,,,0.00,Weather8,2013-02-07 04:54:00,
2013-02-06 23:59:00,29.2,18.5,30.16,NNE,22,1.8,2.5,64,0.00,,,0.00,Weather8,2013-02-07 04:59:00,